QPF
0.00 0.00 0.00 0.00 0.00 0.00 0.00 0.00 0.00 0.00 0.00 0.00 0.00 0.01 0.01 0.01 0.00 0.00 0.00 0.00 0.00 0.00 0.00 0.00 0.00 0.00 0.00 0.00 0.00 0.00 0.00 0.00 0.00 0.00 0.00 0.00 0.00 0.00 0.00 0.00 0.00 0.00 0.00
0.00 0.00 0.00 0.00 0.00 0.00 0.00 0.00 0.00 0.00 0.00 0.00 0.00 0.01 0.01 0.01 0.00 0.00 0.00 0.00 0.00 0.00 0.00 0.00 0.00 0.00 0.00 0.00 0.00 0.00 0.00 0.00 0.00 0.00 0.00 0.00 0.00 0.00 0.00 0.00 0.00 0.00 0.00
0.00 0.00 0.00 0.00 0.00 0.00 0.00 0.00 0.00 0.00 0.00 0.00 0.00 0.01 0.01 0.01 0.00 0.00 0.00 0.00 0.00 0.00 0.00 0.00 0.00 0.00 0.00 0.00 0.00 0.00 0.00 0.00 0.00 0.00 0.00 0.00 0.00 0.00 0.00 0.00 0.00 0.00 0.00
0.00 0.00 0.00 0.00 0.00 0.00 0.00 0.00 0.00 0.00 0.00 0.00 0.00 0.00 0.01 0.00 0.00 0.00 0.00 0.00 0.00 0.00 0.00 0.00 0.00 0.00 0.00 0.00 0.00 0.00 0.00 0.00 0.00 0.00 0.00 0.00 0.00 0.00 0.00 0.00 0.00 0.00 0.00
0.00 0.00 0.00 0.00 0.00 0.00 0.00 0.00 0.00 0.00 0.00 0.00 0.00 0.00 0.00 0.00 0.00 0.00 0.00 0.00 0.00 0.00 0.00 0.00 0.00 0.00 0.00 0.00 0.00 0.00 0.00 0.00 0.00 0.00 0.00 0.00 0.00 0.00 0.00 0.00 0.00 0.00 0.00
0.00 0.00 0.00 0.00 0.00 0.00 0.00 0.00 0.00 0.00 0.00 0.00 0.00 0.00 0.00 0.00 0.00 0.00 0.00 0.00 0.00 0.00 0.00 0.00 0.00 0.00 0.00 0.00 0.00 0.00 0.00 0.00 0.00 0.00 0.00 0.00 0.00 0.00 0.00 0.00 0.00 0.00 0.00
0.00 0.00 0.00 0.00 0.00 0.00 0.00 0.00 0.00 0.00 0.00 0.00 0.00 0.00 0.00 0.00 0.00 0.00 0.00 0.00 0.00 0.00 0.00 0.00 0.00 0.00 0.00 0.00 0.00 0.00 0.00 0.00 0.00 0.00 0.00 0.00 0.00 0.00 0.00 0.00 0.00 0.00 0.00
0.00 0.00 0.00 0.00 0.00 0.00 0.00 0.00 0.00 0.00 0.00 0.00 0.00 0.00 0.00 0.00 0.00 0.00 0.00 0.00 0.00 0.00 0.00 0.00 0.00 0.00 0.00 0.00 0.00 0.00 0.00 0.00 0.00 0.00 0.00 0.00 0.00 0.00 0.00 0.00 0.00 0.00 0.00
0.00 0.00 0.00 0.00 0.00 0.00 0.00 0.00 0.00 0.00 0.00 0.00 0.00 0.00 0.00 0.00 0.00 0.00 0.00 0.00 0.00 0.00 0.00 0.00 0.00 0.00 0.00 0.00 0.00 0.00 0.00 0.00 0.00 0.00 0.00 0.00 0.00 0.00 0.00 0.00 0.00 0.00 0.00
0.00 0.00 0.00 0.00 0.00 0.00 0.00 0.00 0.00 0.00 0.00 0.00 0.00 0.00 0.00 0.00 0.00 0.00 0.00 0.00 0.00 0.00 0.00 0.00 0.00 0.00 0.00 0.00 0.00 0.00 0.00 0.00 0.00 0.00 0.00 0.00 0.00 0.00 0.00 0.00 0.00 0.00 0.00
0.00 0.00 0.00 0.00 0.00 0.00 0.00 0.00 0.00 0.00 0.00 0.00 0.00 0.00 0.00 0.00 0.00 0.00 0.00 0.00 0.00 0.00 0.00 0.00 0.00 0.00 0.00 0.00 0.00 0.00 0.00 0.00 0.00 0.00 0.00 0.00 0.00 0.00 0.00 0.00 0.00 0.00 0.00
0.00 0.00 0.00 0.00 0.00 0.00 0.00 0.00 0.00 0.00 0.00 0.00 0.00 0.00 0.00 0.00 0.00 0.00 0.00 0.00 0.00 0.00 0.00 0.00 0.00 0.00 0.00 0.00 0.00 0.00 0.00 0.00 0.00 0.00 0.00 0.00 0.00 0.00 0.00 0.00 0.00 0.00 0.00
0.01 0.00 0.00 0.00 0.00 0.00 0.00 0.00 0.00 0.00 0.00 0.00 0.00 0.00 0.00 0.00 0.00 0.00 0.00 0.00 0.00 0.00 0.00 0.00 0.00 0.00 0.00 0.00 0.00 0.00 0.00 0.00 0.00 0.00 0.00 0.00 0.00 0.00 0.00 0.00 0.00 0.00 0.00
0.01 0.01 0.00 0.00 0.00 0.00 0.00 0.00 0.00 0.00 0.00 0.00 0.00 0.00 0.00 0.00 0.00 0.00 0.00 0.00 0.00 0.00 0.00 0.00 0.00 0.00 0.00 0.00 0.00 0.00 0.00 0.00 0.00 0.00 0.00 0.00 0.00 0.00 0.00 0.00 0.00 0.00 0.00
0.01 0.00 0.00 0.00 0.00 0.00 0.00 0.00 0.00 0.00 0.00 0.00 0.00 0.00 0.00 0.00 0.00 0.00 0.00 0.00 0.00 0.00 0.00 0.00 0.00 0.00 0.00 0.00 0.00 0.00 0.00 0.00 0.00 0.00 0.00 0.00 0.00 0.00 0.00 0.00 0.01 0.01 0.01
0.00 0.00 0.00 0.00 0.00 0.00 0.00 0.00 0.00 0.00 0.00 0.00 0.00 0.00 0.00 0.00 0.00 0.00 0.00 0.00 0.00 0.00 0.00 0.00 0.00 0.00 0.00 0.00 0.00 0.00 0.00 0.00 0.00 0.00 0.00 0.00 0.00 0.00 0.00 0.00 0.01 0.02 0.04
0.00 0.00 0.00 0.00 0.00 0.00 0.00 0.00 0.00 0.00 0.00 0.00 0.00 0.00 0.00 0.00 0.00 0.00 0.00 0.00 0.00 0.00 0.00 0.00 0.00 0.00 0.00 0.00 0.00 0.00 0.00 0.00 0.00 0.00 0.00 0.00 0.00 0.00 0.00 0.00 0.01 0.02 0.03
0.00 0.00 0.00 0.00 0.00 0.00 0.00 0.00 0.00 0.00 0.00 0.00 0.00 0.00 0.00 0.00 0.00 0.00 0.00 0.00 0.00 0.00 0.00 0.00 0.00 0.00 0.00 0.00 0.00 0.00 0.00 0.00 0.00 0.00 0.00 0.00 0.00 0.00 0.01 0.02 0.04 0.02 0.01
0.00 0.00 0.00 0.00 0.00 0.00 0.00 0.00 0.00 0.00 0.00 0.00 0.00 0.00 0.00 0.00 0.00 0.00 0.00 0.00 0.00 0.00 0.00 0.00 0.00 0.00 0.00 0.00 0.00 0.00 0.00 0.00 0.00 0.00 0.00 0.00 0.00 0.01 0.02 0.04 0.03 0.01 0.00
0.00 0.00 0.00 0.00 0.00 0.00 0.00 0.00 0.00 0.00 0.00 0.00 0.00 0.00 0.00 0.00 0.00 0.00 0.00 0.00 0.00 0.00 0.00 0.00 0.00 0.00 0.00 0.00 0.00 0.00 0.00 0.00 0.00 0.00 0.00 0.00 0.00 0.02 0.03 0.02 0.01 0.00 0.01
0.00 0.00 0.00 0.00 0.00 0.00 0.00 0.00 0.00 0.00 0.00 0.00 0.00 0.00 0.00 0.00 0.00 0.00 0.00 0.00 0.00 0.00 0.00 0.00 0.00 0.00 0.00 0.00 0.00 0.00 0.00 0.00 0.00 0.00 0.00 0.00 0.01 0.02 0.02 0.01 0.00 0.01 0.02
0.00 0.00 0.00 0.00 0.00 0.00 0.00 0.00 0.00 0.00 0.00 0.00 0.00 0.00 0.00 0.00 0.00 0.00 0.00 0.00 0.00 0.00 0.00 0.00 0.00 0.00 0.00 0.00 0.00 0.00 0.01 0.01 0.00 0.00 0.00 0.00 0.01 0.01 0.00 0.00 0.00 0.01 0.01
0.00 0.00 0.00 0.00 0.00 0.00 0.00 0.00 0.00 0.00 0.00 0.00 0.00 0.00 0.00 0.00 0.00 0.00 0.00 0.00 0.00 0.00 0.00 0.00 0.00 0.00 0.00 0.00 0.00 0.00 0.01 0.01 0.01 0.00 0.01 0.01 0.00 0.00 0.00 0.00 0.00 0.00 0.00
0.00 0.00 0.00 0.00 0.00 0.00 0.00 0.00 0.00 0.00 0.00 0.00 0.00 0.00 0.00 0.00 0.00 0.00 0.00 0.00 0.00 0.00 0.00 0.00 0.00 0.00 0.00 0.00 0.00 0.00 0.00 0.01 0.01 0.00 0.00 0.00 0.00 0.00 0.00 0.00 0.00 0.00 0.00
0.00 0.00 0.00 0.00 0.00 0.00 0.00 0.00 0.00 0.00 0.00 0.00 0.00 0.00 0.00 0.00 0.00 0.00 0.00 0.00 0.00 0.00 0.00 0.00 0.00 0.00 0.00 0.00 0.01 0.01 0.01 0.01 0.01 0.01 0.00 0.00 0.00 0.00 0.00 0.00 0.00 0.00 0.00
0.00 0.00 0.00 0.00 0.00 0.00 0.00 0.00 0.00 0.00 0.00 0.00 0.00 0.00 0.00 0.00 0.00 0.00 0.00 0.00 0.00 0.00 0.00 0.00 0.00 0.00 0.00 0.00 0.00 0.01 0.01 0.01 0.00 0.00 0.00 0.00 0.00 0.00 0.00 0.00 0.00 0.00 0.00
MSLP
1007.67 1007.60 1007.53 1007.47 1007.42 1007.43 1007.51 1007.70 1008.02 1008.48 1009.08 1009.78 1010.55 1011.37 1012.17 1012.95 1013.66 1014.29 1014.86 1015.35 1015.80 1016.20 1016.57 1016.93 1017.27 1017.60 1017.89 1018.15 1018.35 1018.49 1018.56 1018.55 1018.46 1018.31 1018.11 1017.88 1017.63 1017.40 1017.18 1016.99 1016.84 1016.72 1016.62
1007.23 1007.26 1007.29 1007.32 1007.34 1007.39 1007.51 1007.71 1008.05 1008.53 1009.14 1009.87 1010.68 1011.53 1012.37 1013.17 1013.91 1014.58 1015.17 1015.69 1016.16 1016.59 1016.98 1017.36 1017.70 1018.02 1018.30 1018.55 1018.74 1018.88 1018.96 1018.98 1018.94 1018.84 1018.69 1018.49 1018.25 1017.99 1017.71 1017.43 1017.17 1016.92 1016.70
1006.62 1006.78 1006.94 1007.08 1007.20 1007.33 1007.50 1007.75 1008.12 1008.63 1009.27 1010.02 1010.86 1011.73 1012.59 1013.41 1014.17 1014.85 1015.46 1016.00 1016.49 1016.94 1017.35 1017.73 1018.08 1018.39 1018.66 1018.89 1019.08 1019.23 1019.33 1019.39 1019.41 1019.38 1019.29 1019.14 1018.92 1018.63 1018.30 1017.92 1017.53 1017.15 1016.78
1005.86 1006.15 1006.44 1006.72 1006.96 1007.19 1007.44 1007.76 1008.18 1008.73 1009.41 1010.19 1011.04 1011.93 1012.80 1013.63 1014.40 1015.09 1015.71 1016.27 1016.78 1017.24 1017.67 1018.05 1018.40 1018.70 1018.96 1019.17 1019.35 1019.51 1019.64 1019.75 1019.83 1019.87 1019.85 1019.75 1019.55 1019.26 1018.88 1018.42 1017.91 1017.38 1016.87
1004.98 1005.40 1005.84 1006.25 1006.63 1006.97 1007.32 1007.73 1008.22 1008.82 1009.53 1010.34 1011.22 1012.12 1013.00 1013.84 1014.61 1015.30 1015.94 1016.51 1017.03 1017.51 1017.94 1018.33 1018.67 1018.96 1019.20 1019.40 1019.57 1019.72 1019.87 1020.02 1020.15 1020.25 1020.29 1020.24 1020.08 1019.80 1019.38 1018.85 1018.25 1017.60 1016.96
1004.09 1004.63 1005.20 1005.75 1006.26 1006.72 1007.18 1007.67 1008.23 1008.89 1009.65 1010.49 1011.39 1012.30 1013.19 1014.03 1014.81 1015.51 1016.15 1016.74 1017.27 1017.76 1018.20 1018.59 1018.92 1019.20 1019.41 1019.59 1019.73 1019.87 1020.02 1020.17 1020.33 1020.47 1020.56 1020.56 1020.43 1020.16 1019.73 1019.16 1018.49 1017.75 1017.01
1003.31 1003.95 1004.63 1005.30 1005.92 1006.49 1007.05 1007.62 1008.25 1008.97 1009.77 1010.64 1011.56 1012.49 1013.39 1014.24 1015.03 1015.74 1016.39 1016.99 1017.53 1018.03 1018.47 1018.86 1019.17 1019.42 1019.60 1019.74 1019.85 1019.95 1020.07 1020.21 1020.37 1020.53 1020.64 1020.66 1020.56 1020.30 1019.88 1019.30 1018.59 1017.80 1016.99
1002.72 1003.44 1004.22 1004.98 1005.70 1006.36 1007.00 1007.64 1008.33 1009.09 1009.93 1010.83 1011.77 1012.71 1013.63 1014.49 1015.29 1016.01 1016.67 1017.27 1017.82 1018.32 1018.76 1019.13 1019.42 1019.63 1019.78 1019.86 1019.92 1019.97 1020.04 1020.15 1020.28 1020.41 1020.52 1020.55 1020.46 1020.22 1019.81 1019.23 1018.52 1017.71 1016.86
1002.39 1003.18 1004.02 1004.85 1005.64 1006.37 1007.07 1007.77 1008.50 1009.30 1010.16 1011.08 1012.04 1012.99 1013.92 1014.79 1015.59 1016.32 1016.99 1017.59 1018.14 1018.62 1019.04 1019.39 1019.65 1019.82 1019.92 1019.95 1019.94 1019.93 1019.94 1019.98 1020.06 1020.16 1020.23 1020.25 1020.16 1019.93 1019.54 1018.98 1018.28 1017.47 1016.61
1002.32 1003.16 1004.05 1004.93 1005.76 1006.54 1007.29 1008.02 1008.79 1009.61 1010.49 1011.42 1012.38 1013.33 1014.26 1015.13 1015.94 1016.67 1017.33 1017.92 1018.45 1018.91 1019.31 1019.62 1019.84 1019.96 1020.01 1019.98 1019.91 1019.84 1019.77 1019.75 1019.76 1019.80 1019.83 1019.82 1019.71 1019.48 1019.09 1018.55 1017.87 1017.08 1016.23
1002.46 1003.33 1004.26 1005.18 1006.05 1006.87 1007.64 1008.41 1009.19 1010.02 1010.91 1011.83 1012.78 1013.73 1014.65 1015.51 1016.30 1017.01 1017.65 1018.22 1018.72 1019.15 1019.51 1019.77 1019.95 1020.03 1020.02 1019.95 1019.83 1019.69 1019.57 1019.48 1019.42 1019.40 1019.37 1019.31 1019.17 1018.92 1018.54 1018.01 1017.34 1016.57 1015.72
1002.70 1003.61 1004.58 1005.53 1006.44 1007.29 1008.10 1008.89 1009.69 1010.52 1011.40 1012.31 1013.24 1014.16 1015.05 1015.88 1016.64 1017.33 1017.93 1018.47 1018.93 1019.32 1019.63 1019.85 1019.98 1020.01 1019.96 1019.85 1019.69 1019.51 1019.33 1019.19 1019.08 1018.98 1018.90 1018.78 1018.60 1018.32 1017.91 1017.38 1016.72 1015.96 1015.12
1002.96 1003.91 1004.91 1005.90 1006.85 1007.74 1008.59 1009.41 1010.22 1011.06 1011.93 1012.81 1013.71 1014.59 1015.44 1016.23 1016.95 1017.59 1018.16 1018.65 1019.06 1019.40 1019.66 1019.84 1019.92 1019.92 1019.84 1019.69 1019.50 1019.29 1019.09 1018.90 1018.73 1018.58 1018.44 1018.26 1018.02 1017.70 1017.26 1016.71 1016.04 1015.28 1014.45
1003.15 1004.15 1005.20 1006.24 1007.24 1008.17 1009.06 1009.92 1010.76 1011.60 1012.45 1013.31 1014.17 1015.00 1015.80 1016.54 1017.21 1017.81 1018.33 1018.77 1019.14 1019.43 1019.64 1019.77 1019.82 1019.78 1019.67 1019.50 1019.29 1019.06 1018.83 1018.61 1018.40 1018.20 1017.99 1017.75 1017.45 1017.07 1016.59 1016.00 1015.32 1014.56 1013.73
1003.26 1004.31 1005.41 1006.50 1007.55 1008.55 1009.49 1010.38 1011.25 1012.09 1012.94 1013.77 1014.59 1015.38 1016.12 1016.81 1017.44 1017.99 1018.46 1018.86 1019.19 1019.43 1019.60 1019.69 1019.69 1019.62 1019.49 1019.30 1019.07 1018.82 1018.56 1018.31 1018.06 1017.80 1017.53 1017.22 1016.86 1016.42 1015.90 1015.28 1014.58 1013.81 1012.99
1003.33 1004.43 1005.56 1006.70 1007.80 1008.85 1009.84 1010.78 1011.67 1012.53 1013.37 1014.17 1014.96 1015.70 1016.41 1017.05 1017.64 1018.15 1018.59 1018.95 1019.24 1019.45 1019.58 1019.62 1019.59 1019.48 1019.31 1019.09 1018.84 1018.56 1018.27 1017.98 1017.68 1017.38 1017.04 1016.67 1016.24 1015.74 1015.17 1014.52 1013.81 1013.04 1012.24
1003.43 1004.55 1005.71 1006.88 1008.02 1009.12 1010.15 1011.13 1012.04 1012.91 1013.74 1014.53 1015.29 1016.00 1016.67 1017.28 1017.83 1018.32 1018.74 1019.07 1019.33 1019.51 1019.60 1019.60 1019.52 1019.37 1019.15 1018.89 1018.60 1018.28 1017.95 1017.61 1017.26 1016.89 1016.49 1016.06 1015.57 1015.02 1014.41 1013.74 1013.02 1012.27 1011.50
1003.65 1004.77 1005.94 1007.11 1008.27 1009.39 1010.45 1011.45 1012.39 1013.27 1014.09 1014.87 1015.60 1016.28 1016.93 1017.52 1018.05 1018.52 1018.92 1019.24 1019.47 1019.61 1019.66 1019.61 1019.48 1019.27 1019.00 1018.68 1018.33 1017.96 1017.57 1017.17 1016.76 1016.34 1015.88 1015.39 1014.85 1014.26 1013.62 1012.95 1012.24 1011.51 1010.77
1004.09 1005.17 1006.31 1007.47 1008.62 1009.73 1010.80 1011.80 1012.75 1013.62 1014.44 1015.20 1015.91 1016.58 1017.20 1017.78 1018.30 1018.75 1019.13 1019.43 1019.64 1019.74 1019.74 1019.64 1019.45 1019.17 1018.83 1018.45 1018.03 1017.59 1017.14 1016.68 1016.21 1015.73 1015.22 1014.68 1014.10 1013.49 1012.84 1012.17 1011.48 1010.79 1010.09
1004.77 1005.80 1006.88 1007.99 1009.10 1010.18 1011.23 1012.23 1013.16 1014.02 1014.83 1015.57 1016.27 1016.92 1017.52 1018.07 1018.57 1019.01 1019.37 1019.63 1019.80 1019.86 1019.80 1019.64 1019.37 1019.03 1018.62 1018.16 1017.67 1017.17 1016.66 1016.15 1015.63 1015.10 1014.55 1013.98 1013.38 1012.76 1012.12 1011.46 1010.80 1010.14 1009.50
1005.68 1006.64 1007.65 1008.69 1009.74 1010.78 1011.79 1012.75 1013.66 1014.50 1015.28 1016.00 1016.68 1017.30 1017.87 1018.40 1018.87 1019.27 1019.59 1019.81 1019.92 1019.92 1019.80 1019.56 1019.23 1018.81 1018.33 1017.81 1017.27 1016.71 1016.16 1015.61 1015.06 1014.51 1013.94 1013.36 1012.75 1012.13 1011.50 1010.87 1010.24 1009.62 1009.00
1006.79 1007.66 1008.59 1009.55 1010.53 1011.51 1012.47 1013.39 1014.26 1015.07 1015.81 1016.50 1017.14 1017.72 1018.26 1018.74 1019.16 1019.51 1019.77 1019.93 1019.97 1019.90 1019.70 1019.39 1018.99 1018.50 1017.97 1017.40 1016.82 1016.25 1015.68 1015.11 1014.56 1014.00 1013.43 1012.85 1012.26 1011.66 1011.05 1010.44 1009.83 1009.23 1008.64
1007.99 1008.79 1009.64 1010.53 1011.45 1012.36 1013.27 1014.13 1014.95 1015.71 1016.41 1017.06 1017.64 1018.18 1018.66 1019.08 1019.43 1019.71 1019.89 1019.97 1019.93 1019.77 1019.50 1019.12 1018.65 1018.12 1017.55 1016.96 1016.38 1015.80 1015.23 1014.69 1014.15 1013.61 1013.07 1012.51 1011.94 1011.36 1010.77 1010.18 1009.59 1009.01 1008.42
1009.22 1009.96 1010.75 1011.58 1012.43 1013.28 1014.12 1014.94 1015.70 1016.40 1017.05 1017.64 1018.16 1018.63 1019.04 1019.39 1019.66 1019.85 1019.94 1019.92 1019.80 1019.56 1019.21 1018.77 1018.25 1017.69 1017.11 1016.52 1015.95 1015.40 1014.87 1014.36 1013.87 1013.37 1012.86 1012.33 1011.79 1011.23 1010.66 1010.08 1009.50 1008.91 1008.32
1010.39 1011.10 1011.85 1012.63 1013.42 1014.22 1015.01 1015.75 1016.46 1017.10 1017.68 1018.20 1018.66 1019.06 1019.39 1019.65 1019.83 1019.93 1019.92 1019.82 1019.60 1019.28 1018.87 1018.38 1017.83 1017.26 1016.68 1016.12 1015.58 1015.08 1014.60 1014.15 1013.70 1013.25 1012.79 1012.30 1011.78 1011.24 1010.68 1010.10 1009.51 1008.91 1008.29
1011.47 1012.17 1012.89 1013.64 1014.39 1015.14 1015.86 1016.55 1017.18 1017.76 1018.27 1018.72 1019.10 1019.42 1019.67 1019.85 1019.94 1019.95 1019.86 1019.66 1019.37 1018.99 1018.52 1018.00 1017.44 1016.87 1016.31 1015.79 1015.30 1014.84 1014.43 1014.03 1013.64 1013.23 1012.81 1012.34 1011.85 1011.31 1010.75 1010.16 1009.56 1008.93 1008.28
Thickness
5667 5669 5673 5677 5679 5680 5682 5682 5681 5678 5676 5671 5665 5658 5651 5646 5644 5642 5640 5637 5634 5630 5626 5620 5615 5611 5608 5603 5601 5598 5594 5590 5588 5586 5585 5586 5584 5581 5578 5574 5569 5565 5563
5661 5664 5666 5668 5671 5673 5674 5674 5673 5671 5670 5667 5663 5655 5646 5639 5635 5632 5629 5627 5624 5621 5616 5611 5605 5601 5598 5593 5589 5586 5581 5575 5572 5567 5565 5564 5568 5569 5569 5563 5559 5554 5550
5658 5659 5659 5662 5664 5665 5667 5669 5666 5664 5662 5659 5654 5646 5638 5631 5625 5621 5617 5615 5613 5610 5606 5601 5596 5591 5587 5582 5577 5573 5567 5561 5556 5551 5547 5543 5541 5544 5553 5551 5546 5540 5534
5656 5658 5657 5657 5659 5659 5659 5660 5659 5657 5655 5653 5650 5646 5638 5627 5619 5613 5608 5604 5602 5599 5595 5590 5586 5581 5576 5571 5566 5560 5554 5548 5541 5536 5532 5526 5522 5519 5529 5536 5532 5527 5521
5655 5657 5658 5658 5655 5652 5652 5652 5651 5649 5646 5645 5643 5640 5630 5620 5609 5604 5599 5595 5591 5588 5584 5580 5575 5569 5564 5558 5552 5547 5540 5534 5528 5522 5517 5512 5507 5502 5498 5509 5514 5512 5507
5652 5654 5654 5652 5647 5644 5644 5644 5643 5640 5638 5636 5634 5631 5622 5612 5602 5595 5590 5585 5581 5577 5573 5568 5563 5558 5552 5546 5539 5533 5527 5521 5515 5509 5503 5498 5492 5487 5481 5482 5491 5494 5494
5645 5646 5645 5645 5642 5639 5638 5637 5636 5631 5629 5627 5624 5620 5614 5607 5598 5590 5583 5577 5571 5565 5561 5556 5551 5545 5539 5533 5527 5521 5515 5509 5502 5496 5490 5484 5477 5472 5466 5463 5469 5474 5478
5636 5640 5642 5642 5640 5637 5634 5631 5628 5623 5620 5617 5612 5607 5602 5596 5587 5581 5575 5568 5562 5555 5550 5545 5539 5533 5527 5521 5515 5509 5503 5497 5490 5485 5478 5471 5464 5457 5450 5444 5442 5452 5462
5627 5632 5634 5636 5634 5632 5629 5626 5621 5616 5611 5607 5602 5595 5590 5584 5577 5570 5565 5558 5552 5546 5540 5534 5528 5522 5516 5510 5504 5497 5491 5485 5479 5472 5466 5458 5452 5444 5436 5427 5419 5415 5428
5618 5623 5626 5628 5626 5624 5620 5616 5613 5608 5602 5597 5593 5586 5579 5573 5567 5561 5554 5547 5541 5535 5529 5523 5517 5510 5504 5498 5492 5486 5480 5473 5467 5461 5454 5446 5439 5431 5422 5413 5404 5395 5392
5615 5618 5618 5617 5616 5613 5611 5607 5602 5597 5592 5588 5582 5575 5568 5562 5556 5550 5543 5537 5531 5525 5519 5512 5505 5499 5493 5487 5481 5474 5468 5461 5455 5448 5441 5433 5426 5417 5409 5399 5390 5380 5370
5607 5607 5607 5606 5605 5603 5601 5596 5592 5588 5583 5578 5572 5565 5558 5552 5545 5539 5533 5527 5521 5514 5508 5501 5494 5488 5482 5475 5469 5462 5456 5449 5442 5435 5428 5420 5413 5404 5395 5385 5375 5365 5352
5594 5594 5594 5596 5595 5594 5591 5587 5582 5578 5573 5568 5562 5554 5548 5542 5535 5528 5523 5517 5510 5503 5497 5490 5483 5477 5471 5464 5458 5452 5445 5437 5430 5422 5414 5406 5398 5389 5380 5370 5360 5348 5337
5585 5584 5586 5586 5586 5584 5581 5577 5572 5569 5564 5559 5552 5545 5538 5532 5525 5519 5513 5507 5500 5493 5486 5479 5473 5466 5460 5453 5447 5441 5434 5425 5417 5408 5400 5392 5382 5373 5364 5355 5343 5330 5317
5580 5581 5580 5578 5576 5574 5571 5567 5563 5560 5556 5549 5542 5534 5528 5522 5516 5509 5503 5496 5490 5482 5475 5468 5461 5455 5448 5443 5437 5431 5423 5414 5405 5396 5387 5377 5368 5359 5347 5336 5323 5308 5295
5580 5579 5576 5573 5570 5568 5564 5560 5555 5550 5546 5540 5532 5525 5519 5513 5506 5499 5492 5485 5478 5471 5464 5457 5450 5443 5437 5432 5427 5420 5412 5402 5392 5383 5374 5363 5352 5341 5331 5316 5302 5288 5276
5581 5578 5574 5570 5566 5562 5559 5553 5547 5542 5537 5530 5523 5517 5511 5503 5496 5490 5482 5474 5466 5459 5452 5445 5438 5431 5424 5420 5415 5408 5400 5388 5377 5367 5358 5348 5336 5322 5310 5301 5290 5277 5265
5581 5576 5570 5564 5559 5555 5551 5545 5540 5534 5528 5521 5514 5508 5501 5493 5485 5478 5470 5463 5455 5447 5440 5433 5426 5419 5413 5409 5403 5396 5387 5375 5363 5352 5340 5330 5319 5305 5295 5289 5280 5269 5260
5579 5573 5567 5560 5554 5549 5544 5539 5531 5524 5518 5511 5504 5498 5491 5483 5475 5466 5459 5451 5443 5436 5429 5422 5415 5408 5402 5396 5391 5385 5374 5362 5351 5337 5324 5312 5302 5292 5283 5275 5268 5263 5258
5574 5567 5559 5553 5547 5541 5538 5531 5522 5515 5508 5501 5494 5487 5480 5471 5463 5455 5447 5439 5432 5424 5418 5411 5404 5397 5390 5385 5379 5371 5361 5351 5340 5325 5309 5294 5283 5276 5270 5264 5259 5256 5254
5563 5558 5552 5546 5539 5534 5530 5522 5513 5505 5498 5491 5483 5475 5467 5459 5451 5443 5436 5428 5421 5414 5407 5400 5393 5385 5378 5372 5363 5354 5343 5332 5322 5309 5294 5280 5271 5266 5261 5257 5251 5249 5252
5550 5547 5542 5533 5527 5525 5521 5511 5501 5493 5487 5479 5470 5462 5455 5448 5440 5432 5425 5417 5410 5402 5395 5388 5381 5373 5364 5356 5349 5339 5327 5315 5303 5291 5279 5269 5264 5258 5254 5250 5248 5249 5248
5538 5534 5529 5522 5515 5512 5510 5500 5488 5482 5475 5466 5457 5450 5442 5435 5428 5421 5414 5406 5398 5390 5383 5375 5369 5363 5354 5343 5335 5325 5313 5301 5288 5276 5267 5260 5255 5251 5246 5244 5245 5244 5240
5525 5522 5518 5511 5502 5497 5493 5487 5478 5471 5464 5454 5445 5438 5431 5423 5416 5409 5403 5395 5387 5379 5372 5365 5360 5352 5342 5331 5322 5311 5299 5288 5276 5265 5258 5252 5246 5242 5241 5241 5239 5237 5237
5514 5512 5507 5498 5489 5484 5478 5472 5466 5460 5451 5442 5434 5426 5419 5412 5405 5398 5391 5385 5377 5369 5364 5357 5347 5338 5329 5318 5307 5295 5283 5272 5263 5257 5249 5243 5240 5237 5236 5236 5235 5235 5234
5503 5498 5492 5485 5478 5472 5465 5459 5454 5448 5440 5431 5422 5415 5408 5401 5394 5387 5380 5375 5368 5361 5352 5343 5333 5323 5311 5301 5290 5278 5266 5257 5251 5245 5237 5234 5232 5232 5232 5232 5232 5232 5231